Location: Unspecified
(49.9820°N, 20.4363°E)
Time: 06:49:13
(UTC+02:00)

Injun/Solrad 3 - All Passes

Search period start: 14 May 2026 00:00
Search period end: 24 May 2026 00:00
Orbit: 868 x 988 km, 66.8° (Epoch: 13 May)

Date Brightness Start Highest point End Pass type
(mag) Time Alt. Az. Time Alt. Az. Time Alt. Az.
14 May - 00:26:53 10° NNW 00:33:16 64° NE 00:39:41 10° SE visible
14 May - 02:13:51 10° NW 02:19:28 33° WSW 02:25:05 10° S visible
14 May - 15:40:05 10° S 15:45:21 32° ESE 15:50:47 10° NE daylight
14 May - 17:25:29 10° SW 17:31:31 61° NW 17:37:46 10° NNE daylight
14 May - 19:14:29 10° WNW 19:19:19 23° NNW 19:24:17 10° NNE daylight
14 May - 21:04:11 10° NW 21:08:15 17° N 21:12:22 10° NE visible
14 May - 22:51:31 10° NNW 22:56:58 29° NNE 23:02:28 10° E visible
15 May - 00:37:56 10° NW 00:44:23 85° NE 00:50:51 10° SE visible
15 May - 02:25:22 10° WNW 02:30:13 23° WSW 02:35:03 10° SSW visible
15 May - 15:50:25 10° S 15:56:09 46° ESE 16:02:05 10° NE daylight
15 May - 17:36:52 10° WSW 17:42:43 46° NW 17:48:48 10° NNE daylight
15 May - 19:26:22 10° WNW 19:30:52 20° NNW 19:35:28 10° NNE daylight
15 May - 21:15:37 10° NNW 21:19:53 18° N 21:24:10 10° NE visible
15 May - 23:02:32 10° NNW 23:08:21 35° NE 23:14:13 10° E visible
16 May - 00:49:00 10° NW 00:55:24 72° WSW 01:01:49 10° SSE visible
16 May - 02:37:19 10° WNW 02:40:52 15° WSW 02:44:25 10° SW visible
16 May - 14:19:14 10° SE 14:21:47 13° E 14:24:23 10° ENE daylight
16 May - 16:01:04 10° SSW 16:07:03 66° ESE 16:13:17 10° NE daylight
16 May - 17:48:23 10° WSW 17:54:00 36° NW 17:59:49 10° NNE daylight
16 May - 19:38:14 10° NW 19:42:27 18° N 19:46:45 10° NNE daylight
16 May - 21:26:54 10° NNW 21:31:28 20° NNE 21:36:05 10° ENE visible
16 May - 23:13:32 10° NNW 23:19:40 44° NE 23:25:49 10° ESE visible
17 May - 01:00:09 10° NW 01:06:21 52° WSW 01:12:33 10° S visible
17 May - 14:28:13 10° SSE 14:32:24 20° ESE 14:36:41 10° ENE daylight
17 May - 16:11:57 10° SW 16:18:03 90° W 16:24:23 10° NE daylight
17 May - 18:00:04 10° W 18:05:23 29° NNW 18:10:51 10° NNE daylight
17 May - 19:50:01 10° NW 19:54:04 17° N 19:58:11 10° NE daylight
17 May - 21:38:04 10° NNW 21:43:01 23° NNE 21:48:00 10° ENE visible
17 May - 23:24:33 10° NNW 23:30:53 58° NE 23:37:15 10° SE visible
18 May - 01:11:24 10° NW 01:17:12 37° WSW 01:23:00 10° S visible
18 May - 14:38:01 10° SSE 14:43:06 29° ESE 14:48:20 10° NE daylight
18 May - 16:23:04 10° SW 16:29:08 67° NW 16:35:27 10° NE daylight
18 May - 18:11:51 10° WNW 18:16:50 24° NNW 18:21:56 10° NNE daylight
18 May - 20:01:40 10° NW 20:05:43 17° N 20:09:48 10° NE daylight
18 May - 21:49:09 10° NNW 21:54:30 27° NNE 21:59:53 10° E visible
18 May - 23:35:34 10° NW 23:42:02 77° NE 23:48:29 10° SE visible
19 May - 01:22:50 10° NW 01:27:58 26° WSW 01:33:06 10° SSW visible
19 May - 14:48:15 10° S 14:53:53 41° ESE 14:59:41 10° NE daylight
19 May - 16:34:21 10° WSW 16:40:18 50° NW 16:46:28 10° NNE daylight
19 May - 18:23:44 10° WNW 18:28:21 21° NNW 18:33:04 10° NNE daylight
19 May - 20:13:09 10° NNW 20:17:21 18° N 20:21:34 10° NE daylight
19 May - 22:00:12 10° NNW 22:05:55 33° NE 22:11:40 10° E visible
19 May - 23:46:38 10° NW 23:53:05 80° WSW 23:59:32 10° SSE visible
20 May - 01:34:36 10° WNW 01:38:39 18° WSW 01:42:43 10° SW visible
20 May - 13:18:03 10° ESE 13:19:37 11° E 13:21:09 10° E daylight
20 May - 14:58:48 10° SSW 15:04:44 59° ESE 15:10:55 10° NE daylight
20 May - 16:45:51 10° WSW 16:51:34 39° NW 16:57:29 10° NNE daylight
20 May - 18:35:36 10° WNW 18:39:56 19° NNW 18:44:19 10° NNE daylight
20 May - 20:24:29 10° NNW 20:28:57 19° NNE 20:33:28 10° ENE daylight
20 May - 22:11:13 10° NNW 22:17:15 41° NE 22:23:19 10° ESE visible
20 May - 23:57:46 10° NW 00:04:03 58° WSW 00:10:21 10° SSE visible
21 May - 01:47:21 10° W 01:49:15 11° W 01:51:10 10° WSW visible
21 May - 13:26:23 10° SE 13:30:11 17° ESE 13:34:03 10° ENE daylight
21 May - 15:09:37 10° SSW 15:15:42 82° SE 15:22:03 10° NE daylight
21 May - 16:57:29 10° W 17:02:55 31° NNW 17:08:31 10° NNE daylight
21 May - 18:47:25 10° NW 18:51:32 18° N 18:55:43 10° NE daylight
21 May - 20:35:41 10° NNW 20:40:31 22° NNE 20:45:23 10° ENE daylight
21 May - 22:22:12 10° NNW 22:28:30 53° NE 22:34:48 10° ESE visible
22 May - 00:08:59 10° NW 00:14:56 41° WSW 00:20:53 10° S visible
22 May - 13:36:00 10° SSE 13:40:51 26° ESE 13:45:50 10° NE daylight
22 May - 15:20:39 10° SW 15:26:45 74° NW 15:33:07 10° NE daylight
22 May - 17:09:14 10° W 17:14:20 26° NNW 17:19:34 10° NNE daylight
22 May - 18:59:07 10° NW 19:03:10 17° N 19:07:17 10° NE daylight
22 May - 20:46:48 10° NNW 20:52:01 25° NNE 20:57:17 10° E daylight
22 May - 22:33:14 10° NW 22:39:40 70° NE 22:46:07 10° SE visible
23 May - 00:20:20 10° NW 00:25:44 29° WSW 00:31:07 10° SSW visible
23 May - 13:46:07 10° S 13:51:36 37° ESE 13:57:16 10° NE daylight
23 May - 15:31:54 10° SW 15:37:54 55° NW 15:44:09 10° NNE daylight
23 May - 17:21:05 10° WNW 17:25:51 22° NNW 17:30:42 10° NNE daylight
23 May - 19:10:40 10° NW 19:14:49 18° N 19:18:59 10° NE daylight
23 May - 20:57:51 10° NNW 21:03:27 31° NNE 21:09:06 10° E visible
23 May - 22:44:16 10° NW 22:50:45 87° SW 22:57:13 10° SSE visible
